Louisburg, NC

12:20 PM EDT on September 29, 2016 (GMT -0400)
Franklin County

Weather History for KLHZ - April, 2014

Change the Weather History Date:

Tuesday, April 8, 2014

  Actual Average (KRDU) Record (KRDU)
Temperature  
Mean Temperature 61 °F 58 °F  
Max Temperature 69 °F 71 °F 89 °F (1929)
Min Temperature 53 °F 46 °F 27 °F (2007)
Degree Days  
Heating Degree Days 4 8  
Month to date heating degree days 69  
Since 1 July heating degree days 3065  
Cooling Degree Days 0 1  
Month to date cooling degree days 8  
Year to date cooling degree days 20  
Growing Degree Days 11 (Base 50)    
Moisture  
Dew Point 53 °F    
Average Humidity 65    
Maximum Humidity 88    
Minimum Humidity 40    
Precipitation  
Precipitation 0.00 in 0.10 in 2.30 in (1895)
Month to date precipitation 0.84  
Year to date precipitation 11.68  
Snow  
Snow 0.00 in 0.00 in 0.00 in (2002)
Month to date snowfall 0.1  
Since 1 July snowfall 6.1  
Snow Depth -    
Sea Level Pressure  
Sea Level Pressure 29.63 in    
Wind  
Wind Speed 7 mph (West)    
Max Wind Speed 15 mph    
Max Gust Speed 26 mph    
Visibility 10 miles    
Events      
T = Trace of Precipitation, MM = Missing Value Source: NWS Daily Summary

Daily Weather History Graph

Daily Weather History Graph

Search for Another Location

Airport or City:

Trip Planner

Search our weather history database for the weather conditions in past years. The results will help you decide how hot, cold, wet, or windy it might be!

Date:

Astronomy

Apr. 08, 2014 Rise Set
Actual Time 6:49 AM EDT 7:41 PM EDT
Civil Twilight 6:23 AM EDT 8:07 PM EDT
Nautical Twilight 5:52 AM EDT 8:38 PM EDT
Astronomical Twilight 5:21 AM EDT 9:10 PM EDT
Moon 1:43 PM EDT (4/8) 2:50 AM EDT (4/8)
Length of Visible Light 13h 43m
Length of Day
12h 51m
Waxing Gibbous, 62% of the Moon is Illuminated
Apr 8
Waxing Gibbous
Apr 15
Full
Apr 22
Last Quarter
Apr 29
New
May 6
First Quarter

Hourly Weather History & Observations

Time (EDT) Temp. Dew Point Humidity Pressure Visibility Wind Dir Wind Speed Gust Speed Precip Events Conditions
12:15 AM 66.2 °F 60.8 °F 83% 29.67 in 10.0 mi South 13.8 mph 18.4 mph N/A   Clear
12:35 AM 66.2 °F 60.8 °F 83% 29.68 in 10.0 mi South 11.5 mph 17.3 mph N/A   Clear
12:55 AM 68.0 °F 60.8 °F 78% 29.67 in 10.0 mi South 10.4 mph - N/A   Scattered Clouds
1:15 AM 68.0 °F 60.8 °F 78% 29.66 in 10.0 mi South 10.4 mph 17.3 mph N/A   Scattered Clouds
1:35 AM 68.0 °F 62.6 °F 83% 29.65 in 10.0 mi South 11.5 mph 18.4 mph N/A   Mostly Cloudy
1:55 AM 68.0 °F 60.8 °F 78% 29.64 in 10.0 mi South 10.4 mph 18.4 mph N/A   Overcast
2:15 AM 68.0 °F 60.8 °F 78% 29.64 in 10.0 mi South 10.4 mph 23.0 mph N/A   Overcast
2:35 AM 69.8 °F 62.6 °F 78% 29.63 in 10.0 mi South 15.0 mph 20.7 mph N/A   Overcast
2:55 AM 69.8 °F 62.6 °F 78% 29.62 in 10.0 mi SSW 10.4 mph 19.6 mph N/A   Overcast
3:15 AM 69.8 °F 62.6 °F 78% 29.63 in 10.0 mi SSW 11.5 mph 26.5 mph N/A   Overcast
3:35 AM 69.8 °F 62.6 °F 78% 29.62 in 10.0 mi SSW 10.4 mph 23.0 mph N/A   Overcast
3:55 AM 69.8 °F 62.6 °F 78% 29.61 in 10.0 mi SSW 6.9 mph 20.7 mph N/A   Overcast
4:15 AM 69.8 °F 62.6 °F 78% 29.60 in 10.0 mi SSW 12.7 mph 25.3 mph N/A   Overcast
4:35 AM 68.0 °F 62.6 °F 83% 29.60 in 7.0 mi SSW 8.1 mph - N/A   Overcast
4:55 AM 68.0 °F 62.6 °F 83% 29.61 in 7.0 mi SW 4.6 mph - N/A   Overcast
5:15 AM 68.0 °F 62.6 °F 83% 29.61 in 5.0 mi SSW 3.5 mph - N/A   Haze
5:35 AM 68.0 °F 62.6 °F 83% 29.59 in 7.0 mi Calm Calm - N/A   Light Drizzle
5:55 AM 68.0 °F 62.6 °F 83% 29.60 in 10.0 mi SW 3.5 mph - N/A   Overcast
6:15 AM 68.0 °F 62.6 °F 83% 29.59 in 10.0 mi Calm Calm - N/A   Mostly Cloudy
6:35 AM 68.0 °F 62.6 °F 83% 29.59 in 10.0 mi South 5.8 mph - N/A   Scattered Clouds
6:55 AM 66.2 °F 62.6 °F 88% 29.61 in 10.0 mi SSW 6.9 mph - N/A   Scattered Clouds
7:15 AM 66.2 °F 62.6 °F 88% 29.60 in 10.0 mi SSW 4.6 mph - N/A   Scattered Clouds
7:35 AM 66.2 °F 62.6 °F 88% 29.60 in 10.0 mi SSW 3.5 mph - N/A   Mostly Cloudy
7:55 AM 68.0 °F 62.6 °F 83% 29.61 in 10.0 mi Calm Calm - N/A   Mostly Cloudy
8:15 AM 68.0 °F 62.6 °F 83% 29.61 in 10.0 mi SSW 6.9 mph - N/A   Mostly Cloudy
8:35 AM 68.0 °F 62.6 °F 83% 29.61 in 10.0 mi SSW 4.6 mph - N/A   Mostly Cloudy
8:55 AM 68.0 °F 62.6 °F 83% 29.62 in 10.0 mi Calm Calm - N/A   Mostly Cloudy
9:15 AM 68.0 °F 62.6 °F 83% 29.61 in 10.0 mi Calm Calm - N/A   Overcast
9:35 AM 68.0 °F 60.8 °F 78% 29.61 in 10.0 mi Calm Calm - N/A   Overcast
9:55 AM 68.0 °F 60.8 °F 78% 29.62 in 10.0 mi WSW 3.5 mph - N/A   Overcast
10:15 AM 69.8 °F 60.8 °F 73% 29.62 in 10.0 mi Calm Calm - N/A   Overcast
10:35 AM 69.8 °F 59.0 °F 68% 29.62 in 10.0 mi Calm Calm - N/A   Mostly Cloudy
10:55 AM 68.0 °F 53.6 °F 60% 29.63 in 10.0 mi NW 6.9 mph - N/A   Overcast
11:15 AM 68.0 °F 51.8 °F 56% 29.63 in 10.0 mi NW 4.6 mph - N/A   Scattered Clouds
11:35 AM 68.0 °F 51.8 °F 56% 29.63 in 10.0 mi NW 6.9 mph - N/A   Scattered Clouds
11:55 AM 68.0 °F 51.8 °F 56% 29.63 in 10.0 mi NNW 5.8 mph - N/A   Mostly Cloudy
12:15 PM 68.0 °F 51.8 °F 56% 29.63 in 10.0 mi Calm Calm - N/A   Scattered Clouds
12:35 PM 68.0 °F 48.2 °F 49% 29.63 in 10.0 mi NW 4.6 mph - N/A   Scattered Clouds
12:55 PM 66.2 °F 46.4 °F 49% 29.63 in 10.0 mi NW 3.5 mph - N/A   Overcast
1:15 PM 66.2 °F 46.4 °F 49% 29.62 in 10.0 mi NW 5.8 mph - N/A   Mostly Cloudy
1:35 PM 66.2 °F 44.6 °F 46% 29.62 in 10.0 mi NW 4.6 mph - N/A   Mostly Cloudy
1:55 PM 66.2 °F 44.6 °F 46% 29.63 in 10.0 mi NW 4.6 mph - N/A   Scattered Clouds
2:15 PM 64.4 °F 44.6 °F 49% 29.62 in 10.0 mi NNW 8.1 mph - N/A   Clear
2:35 PM 64.4 °F 44.6 °F 49% 29.62 in 10.0 mi NW 3.5 mph - N/A   Scattered Clouds
2:55 PM 64.4 °F 44.6 °F 49% 29.62 in 10.0 mi NNW 4.6 mph - N/A   Scattered Clouds
3:15 PM 64.4 °F 44.6 °F 49% 29.62 in 10.0 mi North 5.8 mph - N/A   Clear
3:35 PM 64.4 °F 44.6 °F 49% 29.61 in 10.0 mi WNW 4.6 mph - N/A   Clear
3:55 PM 68.0 °F 44.6 °F 43% 29.61 in 10.0 mi NW 3.5 mph - N/A   Clear
4:15 PM 68.0 °F 44.6 °F 43% 29.61 in 10.0 mi North 3.5 mph - N/A   Clear
4:35 PM 68.0 °F 44.6 °F 43% 29.61 in 10.0 mi NW 4.6 mph - N/A   Clear
4:55 PM 68.0 °F 42.8 °F 40% 29.61 in 10.0 mi NNW 3.5 mph - N/A   Clear
5:15 PM 68.0 °F 44.6 °F 43% 29.62 in 10.0 mi NNW 4.6 mph - N/A   Clear
5:35 PM 68.0 °F 42.8 °F 40% 29.62 in 10.0 mi NNW 3.5 mph - N/A   Clear
5:55 PM 68.0 °F 44.6 °F 43% 29.62 in 10.0 mi Calm Calm - N/A   Scattered Clouds
6:15 PM 68.0 °F 42.8 °F 40% 29.63 in 10.0 mi Calm Calm - N/A   Scattered Clouds
6:35 PM 68.0 °F 42.8 °F 40% 29.63 in 10.0 mi Calm Calm - N/A   Clear
6:55 PM 66.2 °F 44.6 °F 46% 29.63 in 10.0 mi Calm Calm - N/A   Clear
7:15 PM 64.4 °F 42.8 °F 45% 29.63 in 10.0 mi Calm Calm - N/A   Clear
7:35 PM 62.6 °F 46.4 °F 55% 29.64 in 10.0 mi Calm Calm - N/A   Clear
7:55 PM 62.6 °F 44.6 °F 52% 29.65 in 10.0 mi Calm Calm - N/A   Clear
8:15 PM 60.8 °F 46.4 °F 59% 29.65 in 10.0 mi Calm Calm - N/A   Clear
8:35 PM 59.0 °F 46.4 °F 63% 29.65 in 10.0 mi Calm Calm - N/A   Clear
8:55 PM 59.0 °F 46.4 °F 63% 29.67 in 10.0 mi Calm Calm - N/A   Clear
9:15 PM 59.0 °F 46.4 °F 63% 29.68 in 10.0 mi Calm Calm - N/A   Clear
9:35 PM 57.2 °F 46.4 °F 67% 29.68 in 10.0 mi Calm Calm - N/A   Clear
9:55 PM 55.4 °F 44.6 °F 67% 29.68 in 10.0 mi Calm Calm - N/A   Clear
10:15 PM 53.6 °F 44.6 °F 72% 29.68 in 10.0 mi Calm Calm - N/A   Clear
10:35 PM 59.0 °F 42.8 °F 55% 29.69 in 10.0 mi NW 4.6 mph - N/A   Scattered Clouds
10:55 PM 59.0 °F 42.8 °F 55% 29.69 in 10.0 mi NNW 3.5 mph - N/A   Scattered Clouds
11:15 PM 59.0 °F 41.0 °F 51% 29.68 in 10.0 mi NNW 3.5 mph - N/A   Clear
11:35 PM 57.2 °F 41.0 °F 55% 29.69 in 10.0 mi NNW 3.5 mph - N/A   Clear
11:55 PM 57.2 °F 39.2 °F 51% 29.69 in 10.0 mi NNW 4.6 mph - N/A   Scattered Clouds